Location: Asbacherhof
(48.8543°N, 10.7903°E)
Time: 21:47:24
(UTC+00:00)

Cosmos 2278 Rocket - Pass Details

Date: 26 May 2022
Orbit: 840 x 846 km, 71.0° (Epoch: 29 June)

Event Time Altitude Azimuth Distance (km) Brightness Sun altitude
Rises 01:37:21 0° 317° (NW) 3,417 5.5 -13.1°
Reaches altitude 10° 01:41:00 10° 293° (WNW) 2,474 4.5 -12.7°
Maximum altitude 01:43:48 14° 263° (W) 2,192 4.0 -12.5°
Enters shadow 01:45:25 13° 245° (WSW) 2,285 3.9 -12.3°
